Weather History for OSDI - October, 2012

Change the Weather History Date:

Tuesday, October 2, 2012

  Actual Average Record
Temperature  
Mean Temperature 84 °F -  
Max Temperature 95 °F 81 °F 95 °F (1996)
Min Temperature 72 °F 46 °F 48 °F (2000)
Cooling Degree Days 18    
Growing Degree Days 34 (Base 50)    
Moisture  
Dew Point 46 °F    
Average Humidity 27    
Maximum Humidity 47    
Minimum Humidity 9    
Precipitation  
Precipitation 0.00 in 0.01 in - ()
Sea Level Pressure  
Sea Level Pressure 30.05 in    
Wind  
Wind Speed 10 mph ()    
Max Wind Speed 32 mph    
Max Gust Speed -    
Visibility 6.8 miles    
Events      
Averages and records for this station are not official NWS values.
T = Trace of Precipitation, MM = Missing Value Source: Averaged Metar Reports

Daily Weather History Graph

Daily Weather History Graph

Search for Another Location

Airport or City:

Trip Planner

Search our weather history database for the weather conditions in past years. The results will help you decide how hot, cold, wet, or windy it might be!

Date:

Astronomy

Oct. 02, 2012 Rise Set
Actual Time 6:29 AM EEST 6:16 PM EEST
Civil Twilight 6:04 AM EEST 6:41 PM EEST
Nautical Twilight 5:35 AM EEST 7:10 PM EEST
Astronomical Twilight 5:06 AM EEST 7:39 PM EEST
Moon 7:26 PM EEST (10/2) 8:27 AM EEST (10/2)
Length of Visible Light 12h 37m
Length of Day
11h 47m
Waning Gibbous, 95% of the Moon is Illuminated
Oct 2
Waning Gibbous
Oct 8
Last Quarter
Oct 15
New
Oct 22
First Quarter
Oct 29
Full

Hourly Weather History & Observations

Time (EEST) Temp. Dew Point Humidity Pressure Visibility Wind Dir Wind Speed Gust Speed Precip Events Conditions
12:00 AM 82 °F 46 °F 18% 29.98 in 9 mi West 31.3 mph - -   Partly Cloudy
12:00 AM 82.4 °F 46.4 °F 28% 30.12 in - West 32.2 mph - N/A   Clear
1:00 AM 80.6 °F 51.8 °F 37% 30.12 in - Calm Calm - N/A   Clear
2:00 AM 78.8 °F 51.8 °F 39% 30.09 in - Calm Calm - N/A   Clear
3:00 AM 85 °F 47 °F 17% 29.92 in 9 mi WSW 8.9 mph - -   Partly Cloudy
3:00 AM 84.2 °F 46.4 °F 27% 30.06 in - WSW 9.2 mph - N/A   Clear
4:00 AM 80.6 °F 46.4 °F 30% 30.06 in - WSW 9.2 mph - N/A   Clear
5:00 AM 75.2 °F 46.4 °F 36% 30.06 in - WSW 2.3 mph - N/A   Clear
6:00 AM 73.4 °F 51.8 °F 47% 30.09 in - Calm Calm - N/A   Clear
7:00 AM 71.6 °F 48.2 °F 43% 30.09 in - Calm Calm - N/A   Clear
8:00 AM 77.0 °F 46.4 °F 34% 30.09 in - East 4.6 mph - N/A   Clear
9:00 AM 80 °F 47 °F 21% 29.96 in 9 mi NNE 6.7 mph - -   Scattered Clouds
9:00 AM 78.8 °F 48.2 °F 34% 30.12 in - NNE 6.9 mph - N/A   Clear
10:00 AM 84.2 °F 46.4 °F 27% 30.12 in - ESE 2.3 mph - N/A   Clear
11:00 AM 86.0 °F 46.4 °F 25% 30.12 in - Calm Calm - N/A   Clear
12:00 PM 89.6 °F 46.4 °F 22% 30.09 in - East 11.5 mph - N/A   Clear
1:00 PM 91.4 °F 46.4 °F 21% 30.06 in - NNE 6.9 mph - N/A   Clear
2:00 PM 95.0 °F 46.4 °F 19% 30.04 in - SSE 11.5 mph - N/A   Clear
3:00 PM 95 °F 43 °F 9% 29.87 in 6 mi SSE 6.7 mph - -   Scattered Clouds
3:00 PM 95.0 °F 42.8 °F 16% 30.04 in 6.2 mi SSE 6.9 mph - N/A   Mostly Cloudy
4:00 PM 91.4 °F 50.0 °F 24% 30.06 in 6.2 mi NNW 6.9 mph - N/A   Mostly Cloudy
5:00 PM 91.4 °F 35.6 °F 14% 30.04 in 6.2 mi SSE 9.2 mph - N/A   Mostly Cloudy
6:00 PM 93.2 °F 41.0 °F 16% 30.04 in 6.2 mi South 11.5 mph - N/A   Mostly Cloudy
7:00 PM 89.6 °F 37.4 °F 16% 30.06 in 6.2 mi South 13.8 mph - N/A   Mostly Cloudy
8:00 PM 82.4 °F 48.2 °F 30% 30.04 in 6.2 mi NE 13.8 mph - N/A   Scattered Clouds
9:00 PM 81 °F 49 °F 22% 29.92 in 6 mi Calm Calm - -   Partly Cloudy
9:00 PM 80.6 °F 48.2 °F 32% 30.06 in 6.2 mi Calm Calm - N/A   Mostly Cloudy
10:00 PM 78.8 °F 48.2 °F 34% 30.06 in 6.2 mi North 11.5 mph - N/A   Scattered Clouds
11:00 PM 78.8 °F 48.2 °F 34% 30.09 in 6.2 mi WNW 11.5 mph - N/A   Scattered Clouds